Lancaster, OH

2:06 PM EST on February 20, 2017 (GMT -0500)
Fairfield County

Weather History for KLHQ - April, 2012

Change the Weather History Date:

Saturday, April 21, 2012

  Actual Average Record
Temperature  
Mean Temperature 50 °F -  
Max Temperature 59 °F 66 °F 86 °F (1954)
Min Temperature 42 °F 42 °F 26 °F (1953)
Degree Days  
Heating Degree Days 14    
Moisture  
Dew Point 44 °F    
Average Humidity 87    
Maximum Humidity 96    
Minimum Humidity 76    
Precipitation  
Precipitation 0.50 in - - ()
Sea Level Pressure  
Sea Level Pressure 29.86 in    
Wind  
Wind Speed 9 mph (NNW)    
Max Wind Speed 13 mph    
Max Gust Speed -    
Visibility 8 miles    
Events Rain    
Averages and records for this station are not official NWS values.
T = Trace of Precipitation, MM = Missing Value Source: NWS Daily Summary

Daily Weather History Graph

Daily Weather History Graph

Search for Another Location

Airport or City:

Trip Planner

Search our weather history database for the weather conditions in past years. The results will help you decide how hot, cold, wet, or windy it might be!

Date:

Astronomy

Apr. 21, 2012 Rise Set
Actual Time 6:43 AM EDT 8:15 PM EDT
Civil Twilight 6:15 AM EDT 8:43 PM EDT
Nautical Twilight 5:41 AM EDT 9:18 PM EDT
Astronomical Twilight 5:05 AM EDT 9:54 PM EDT
Moon 6:39 AM EDT (4/21) 8:55 PM EDT (4/21)
Length of Visible Light 14h 28m
Length of Day
13h 31m
New Moon, 0% of the Moon is Illuminated
Apr 21
New Moon
Apr 29
First Quarter
May 5
Full
May 12
Last Quarter
May 20
New

Hourly Weather History & Observations

Time (EDT) Temp. Windchill Dew Point Humidity Pressure Visibility Wind Dir Wind Speed Gust Speed Precip Events Conditions
12:35 AM 59.0 °F - 53.6 °F 82% 29.76 in 10.0 mi NW 10.4 mph - N/A   Overcast
12:53 AM 59.0 °F - 52.0 °F 78% 29.75 in 10.0 mi NW 10.4 mph - N/A   Overcast
1:20 AM 57.2 °F - 51.8 °F 82% 29.78 in 10.0 mi NW 10.4 mph - N/A   Overcast
1:30 AM 57.2 °F - 51.8 °F 82% 29.79 in 10.0 mi WNW 4.6 mph - N/A   Overcast
1:53 AM 57.0 °F - 52.0 °F 83% 29.77 in 10.0 mi NW 9.2 mph - N/A   Overcast
2:50 AM 55.4 °F - 51.8 °F 88% 29.78 in 10.0 mi NW 9.2 mph - N/A   Overcast
2:53 AM 55.9 °F - 52.0 °F 87% 29.77 in 10.0 mi WNW 9.2 mph - N/A   Overcast
3:07 AM 55.4 °F - 51.8 °F 88% 29.77 in 10.0 mi NW 8.1 mph - N/A   Overcast
3:36 AM 53.6 °F - 51.8 °F 94% 29.76 in 10.0 mi NNW 8.1 mph - 0.00 in   Overcast
3:53 AM 54.0 °F - 52.0 °F 93% 29.77 in 7.0 mi WNW 8.1 mph - 0.00 in Rain Light Rain
4:32 AM 51.8 °F - 48.2 °F 88% 29.79 in 4.0 mi NW 10.4 mph - 0.10 in Rain Rain
4:48 AM 50.0 °F - 48.2 °F 94% 29.79 in 4.0 mi NNW 11.5 mph - 0.15 in Rain Heavy Rain
4:53 AM 50.0 °F - 48.0 °F 93% 29.77 in 4.0 mi NNW 11.5 mph - 0.17 in Rain Heavy Rain
5:46 AM 48.2 °F - 46.4 °F 93% 29.80 in 4.0 mi NW 9.2 mph - 0.12 in Rain Rain
5:53 AM 48.0 °F - 46.9 °F 96% 29.81 in 4.0 mi NW 6.9 mph - 0.14 in Rain Heavy Rain
6:28 AM 46.4 °F 41.5 °F 44.6 °F 93% 29.82 in 6.0 mi North 10.4 mph - 0.10 in Rain Rain
6:53 AM 46.9 °F - 45.0 °F 93% 29.81 in 8.0 mi NNE 8.1 mph - 0.14 in Rain Light Rain
7:03 AM 46.4 °F 42.4 °F 44.6 °F 93% 29.82 in 10.0 mi North 8.1 mph - 0.00 in Rain Light Rain
7:08 AM 46.4 °F 41.9 °F 44.6 °F 93% 29.83 in 9.0 mi North 9.2 mph - 0.00 in Rain Light Rain
7:29 AM 46.4 °F 40.7 °F 42.8 °F 87% 29.83 in 10.0 mi North 12.7 mph - 0.01 in Rain Light Rain
7:53 AM 45.0 °F 40.6 °F 42.1 °F 90% 29.83 in 10.0 mi NNE 8.1 mph - 0.01 in   Overcast
8:04 AM 44.6 °F 40.2 °F 42.8 °F 93% 29.84 in 10.0 mi North 8.1 mph - N/A   Overcast
8:21 AM 44.6 °F 39.2 °F 41.0 °F 87% 29.86 in 10.0 mi North 10.4 mph - N/A   Overcast
8:53 AM 45.0 °F 40.6 °F 42.1 °F 90% 29.86 in 10.0 mi North 8.1 mph - N/A   Overcast
9:53 AM 45.0 °F 40.1 °F 42.1 °F 90% 29.88 in 9.0 mi North 9.2 mph - 0.01 in Rain Light Rain
10:44 AM 44.6 °F 39.7 °F 42.8 °F 93% 29.88 in 2.0 mi North 9.2 mph - 0.00 in   Overcast
10:53 AM 44.1 °F 39.5 °F 41.0 °F 89% 29.88 in 2.0 mi North 8.1 mph - 0.01 in Rain Light Rain
11:10 AM 44.6 °F 40.7 °F 41.0 °F 87% 29.89 in 3.0 mi North 6.9 mph - 0.00 in Rain Light Rain
11:17 AM 44.6 °F 40.2 °F 41.0 °F 87% 29.90 in 4.0 mi NNW 8.1 mph - 0.00 in Rain Light Rain
11:42 AM 44.6 °F 39.7 °F 41.0 °F 87% 29.90 in 7.0 mi NNW 9.2 mph - 0.01 in   Overcast
11:53 AM 44.1 °F 40.1 °F 41.0 °F 89% 29.91 in 7.0 mi NNW 6.9 mph - 0.01 in   Overcast
12:00 PM 42.8 °F 38.0 °F 41.0 °F 93% 29.91 in 6.0 mi NNW 8.1 mph - N/A   Overcast
12:08 PM 42.8 °F 37.5 °F 41.0 °F 93% 29.90 in 2.5 mi North 9.2 mph - N/A   Overcast
12:13 PM 42.8 °F 37.5 °F 41.0 °F 93% 29.90 in 1.8 mi North 9.2 mph - N/A   Overcast
12:30 PM 42.8 °F 37.5 °F 41.0 °F 93% 29.90 in 3.0 mi North 9.2 mph - N/A   Overcast
12:53 PM 44.1 °F 39.0 °F 41.0 °F 89% 29.91 in 4.0 mi North 9.2 mph - 0.00 in Rain Light Rain
1:42 PM 44.6 °F 40.2 °F 42.8 °F 93% 29.90 in 5.0 mi North 8.1 mph - 0.01 in Rain Light Rain
1:53 PM 46.9 °F - 42.1 °F 83% 29.91 in 8.0 mi North 11.5 mph - 0.01 in   Overcast
2:31 PM 46.4 °F 41.9 °F 41.0 °F 81% 29.92 in 10.0 mi North 9.2 mph - N/A   Overcast
2:53 PM 46.0 °F 41.4 °F 41.0 °F 83% 29.92 in 10.0 mi North 9.2 mph - N/A   Overcast
3:38 PM 46.4 °F 42.4 °F 39.2 °F 76% 29.91 in 10.0 mi NNW 8.1 mph - N/A   Overcast
3:53 PM 46.0 °F 41.4 °F 39.9 °F 79% 29.92 in 10.0 mi NNW 9.2 mph - N/A   Overcast
4:07 PM 46.4 °F 41.5 °F 41.0 °F 81% 29.91 in 10.0 mi North 10.4 mph - N/A   Overcast
4:38 PM 44.6 °F 39.7 °F 39.2 °F 81% 29.91 in 10.0 mi North 9.2 mph - N/A   Overcast
4:53 PM 45.0 °F 40.1 °F 39.9 °F 82% 29.92 in 9.0 mi North 9.2 mph - N/A   Overcast
5:53 PM 44.1 °F 38.6 °F 39.9 °F 85% 29.94 in 6.0 mi NNE 10.4 mph - N/A   Overcast
6:53 PM 44.1 °F 39.5 °F 39.0 °F 82% 29.94 in 6.0 mi NNE 8.1 mph - N/A   Haze
7:53 PM 44.1 °F 40.1 °F 37.9 °F 79% 29.95 in 6.0 mi North 6.9 mph - N/A   Haze
8:53 PM 43.0 °F 38.2 °F 37.0 °F 80% 29.96 in 9.0 mi North 8.1 mph - N/A   Overcast
9:53 PM 43.0 °F 38.2 °F 37.0 °F 80% 29.96 in 10.0 mi NNE 8.1 mph - N/A   Overcast
10:53 PM 42.1 °F 37.7 °F 35.1 °F 76% 29.96 in 10.0 mi NE 6.9 mph - N/A   Overcast
11:53 PM 42.1 °F 38.4 °F 36.0 °F 79% 29.96 in 10.0 mi NE 5.8 mph - N/A   Overcast